Regional Weather Roundup
Issued by NWS

Home | Current Version | Previous Version | Graphics & Text | Print | Product List | Glossary On
Versions: 1 2 3 4 5 6 7 8 9 10 11 12 13 14 15 16 17 18 19 20 21 22 23 24 25 26 27 28 29 30 31 32 33 34 35 36 37 38 39 40 41 42 43 44 45 46 47 48 49 50
000
ASUS44 KMEG 250710
RWRTN
TENNESSEE HOURLY STATE WEATHER ROUNDUP
NATIONAL WEATHER SERVICE MEMPHIS TN
200 AM CDT FRI JUL 25 2014

TNZ002-004-019-021-049-052-054-088>092-250800-
WEST TENNESSEE

CITY           SKY/WX    TMP DP  RH WIND       PRES   REMARKS
MEMPHIS INTL   PTCLDY    69  61  75 CALM      30.03S
NWS MEMPHIS      N/A     65 N/A N/A MISG        N/A
JACKSON        CLEAR     62  60  93 CALM      30.02F
DYERSBURG      CLEAR     63  52  67 CALM      30.03F
UNION CITY     CLEAR     61  59  94 CALM      30.01F
PARIS          CLEAR     59  56  89 E3        30.03F
LEXINGTON      CLEAR     61  59  94 N3        30.01F
SAVANNAH       CLEAR     61  61 100 CALM      30.01F
$$

TNZ008-025-027-028-033-062-065-066-250800-
NORTH MIDDLE TENNESSEE

CITY           SKY/WX    TMP DP  RH WIND       PRES   REMARKS
NASHVILLE      CLEAR     67  58  72 NE5       30.03F
DICKSON        CLEAR     63  55  77 NE5       30.03F
PORTLAND       PTCLDY    57  55  94 SE3       30.03F
CLARKSVILLE    CLEAR     61  55  81 NW3       30.03F
LEBANON        CLEAR     60  58  93 CALM      30.02F
SMYRNA         CLEAR     63  60  90 CALM      30.04S
MURFREESBORO   CLEAR     65  62  90 CALM      30.02F
COOKEVILLE     CLEAR     59  59 100 CALM      30.04S
LIVINGSTON       N/A     61  60  96 CALM      30.06F
GALLATIN       CLEAR     64  57  78 N3        30.04F
CROSSVILLE     CLEAR     61  58  90 CALM      30.07F FOG
$$

TNZ061-075-076-078-094-096-097-250800-
SOUTH MIDDLE TENNESSEE

CITY           SKY/WX    TMP DP  RH WIND       PRES   REMARKS
LEWISBURG      CLEAR     62  60  93 CALM      30.02F
FAYETTEVILLE   CLEAR     64  63  94 NE12      30.02F
TULLAHOMA      CLEAR     66  63  88 CALM      30.04F
WINCHESTER     CLEAR     64  63  94 CALM      30.03F
MCMINNVILLE    CLEAR     64  64 100 CALM      30.04S
COLUMBIA       CLEAR     64  63  94 CALM      30.02S
SHELBYVILLE    CLEAR     64  63  94 CALM      30.03F
$$

TNZ017-018-042-046-047-250800-
NORTHEAST TENNESSEE

CITY           SKY/WX    TMP DP  RH WIND       PRES   REMARKS
TRI CITIES     PTCLDY    62  59  90 CALM      30.06F
ELIZABETHTON   CLOUDY    64  63  94 CALM      30.06F
$$

TNZ012-013-036-069-073-074-250800-
CENTRAL EAST TENNESSEE

CITY           SKY/WX    TMP DP  RH WIND       PRES   REMARKS
KNOXVILLE      CLEAR     65  63  93 N5        30.02F
OAK RIDGE      CLEAR     63  61  93 CALM      30.04F
GATLINBURG     CLOUDY    66  63  88 CALM      30.02F
MORRISTOWN     SUNNY     64  61  88 E3        30.04F
$$

TNZ083-085-099-250800-
SOUTHEAST TENNESSEE

CITY           SKY/WX    TMP DP  RH WIND       PRES   REMARKS
CHATTANOOGA    CLEAR     70  63  78 N8        30.02F
$$

SKY/WX REPORTED AS FAIR MEANS FEW OR NO CLOUDS BELOW
12 THOUSAND FEET.




USA.gov is the U.S. government's official web portal to all federal, state and local government web resources and services.